Lid_Strength_Index
8 11 14 12 11 12 11 13 14 12 10 11 12 11 10 8 8 8 8 9 7 6 6 7 5 3 3 2 2 1 2 2 2 2 1 2 2 1 1 1 0 0 1 1
11 14 10 10 10 11 11 13 13 11 9 10 12 12 9 9 8 8 8 8 8 7 6 6 7 6 4 3 2 2 1 1 1 1 1 2 2 2 1 0 1 0 0 0
13 11 9 10 11 12 12 13 13 14 11 10 11 13 11 9 8 7 8 8 7 7 6 6 7 7 8 3 3 2 2 2 2 1 1 2 2 2 2 2 3 2 2 3
12 9 10 11 12 11 14 10 10 12 14 18 11 19 13 10 10 9 8 9 8 7 7 6 6 7 8 5 3 3 2 2 2 2 2 3 3 3 2 2 3 4 4 5
13 11 12 13 12 10 12 9 11 12 14 15 15 17 13 12 11 10 9 8 8 8 7 6 7 6 6 6 5 5 4 3 3 2 2 2 3 3 5 4 5 5 6 6
11 8 9 11 9 9 9 11 11 12 14 19 15 16 15 14 11 10 10 9 8 8 8 7 6 7 7 6 5 7 5 5 6 5 3 3 4 7 6 7 6 7 7 8
12 12 9 8 11 9 10 14 19 20 20 19 14 15 14 12 11 10 10 9 8 8 8 7 7 7 7 6 5 6 7 7 6 7 6 5 6 6 6 6 6 7 7 8
17 17 11 9 11 13 13 13 18 22 21 19 15 18 15 12 10 10 10 10 9 8 8 7 7 7 6 5 5 6 5 5 6 5 5 5 6 6 6 6 5 6 6 7
17 16 9 9 9 10 13 15 13 17 18 20 17 15 12 11 11 11 10 10 9 9 9 7 7 7 6 6 5 6 6 5 5 5 5 6 6 6 7 7 7 8 8 8
13 17 12 10 9 9 11 11 16 17 21 22 19 17 17 15 13 12 12 12 11 11 9 7 7 7 6 6 6 6 6 5 5 6 6 6 7 8 8 8 9 9 9 9
11 13 14 11 13 15 13 14 13 15 17 20 20 18 14 12 11 11 10 10 10 9 9 8 7 7 6 6 6 6 6 6 6 6 6 7 7 7 8 9 9 9 9 10
11 13 16 16 11 10 11 14 13 18 18 19 19 18 11 11 10 9 9 8 8 8 8 8 8 6 6 7 7 6 7 6 6 7 7 7 8 9 9 9 9 10 10 10
11 15 17 16 13 11 13 12 12 13 15 19 20 17 11 11 10 9 9 9 8 8 8 8 7 7 6 6 6 7 6 6 6 7 8 8 9 9 10 10 10 10 10 10
8 13 16 19 16 14 16 13 12 13 19 16 16 14 12 11 11 10 10 9 9 8 7 7 7 7 6 6 6 6 6 6 7 7 8 9 9 9 9 10 9 10 10 10
10 15 17 14 12 13 14 13 13 15 13 16 14 13 11 10 10 9 8 9 8 8 7 7 7 7 7 6 6 6 6 6 7 7 8 8 9 9 9 10 10 10 10 10
10 16 16 16 13 13 14 13 13 13 13 13 12 13 8 9 10 9 9 9 9 9 8 7 7 7 7 7 6 6 6 7 7 7 8 8 8 8 8 9 9 10 10 10
11 14 16 18 14 15 17 14 13 13 12 12 14 11 9 10 9 9 9 9 9 8 8 8 8 6 6 6 6 7 7 7 7 7 8 8 8 9 9 9 10 11 11 11
12 13 14 18 16 22 14 11 11 12 11 11 11 10 10 10 9 9 9 9 9 8 8 8 8 7 6 6 6 6 7 7 7 8 8 8 8 9 9 10 11 11 12 12
11 13 15 17 18 15 13 12 12 13 13 10 11 10 9 9 9 10 8 8 8 8 8 8 8 8 7 6 5 6 7 7 7 8 8 8 8 9 10 11 11 12 12 13
11 12 15 17 19 19 14 11 10 11 16 10 9 9 9 9 12 11 8 8 8 8 8 8 8 7 7 7 6 6 7 7 7 8 8 8 8 9 10 11 12 12 11 13
15 15 16 16 17 15 11 10 10 17 15 9 8 8 8 10 9 8 8 8 8 8 8 7 8 8 8 8 7 7 7 8 7 7 8 8 9 10 10 11 12 12 12 12
15 17 16 16 18 19 10 10 13 11 9 8 8 8 8 7 6 6 7 7 7 8 8 7 8 8 8 8 7 7 8 7 7 8 8 9 9 9 10 12 12 12 11 12
16 14 15 13 14 10 9 10 8 8 9 9 9 7 7 7 7 6 6 6 7 7 8 7 8 8 8 8 7 8 8 7 7 8 9 9 9 10 11 12 12 12 12 12
14 11 13 12 12 10 8 8 7 7 7 7 7 6 7 7 6 7 6 7 7 7 8 8 8 9 9 8 7 7 7 7 8 8 9 9 10 10 11 11 11 11 12 12
13 12 13 12 11 9 8 8 8 7 6 6 5 5 5 5 6 6 6 6 7 7 7 7 8 8 8 9 8 8 8 8 8 9 9 10 10 10 11 10 10 11 11 11
12 12 14 14 10 10 10 8 7 8 8 7 6 5 4 4 5 6 5 6 6 7 7 7 8 8 7 7 8 7 7 7 8 9 9 9 9 9 10 10 11 9 9 9